Theta_e
321 321 322 322 323 323 323 324 324 324 323 323 325 325 324 324 324 324 324 324 325 326 325 325 325 325 325 325 324 321 316 307 305 303 301 302 313 321 322 324 323 320 319 311 309 306 303 305 304 303 304 304 301 301 300 302 301 304 296 293 291 292 291 294 293 294 296 294 296 296 296 296 295 292 292 293 291 290 289 288 288 289 289 290 291 292 291 291
321 321 321 321 322 323 323 323 324 324 324 325 325 325 324 324 325 325 324 325 327 326 325 325 324 324 324 324 323 320 313 306 303 302 301 310 322 321 322 321 321 318 317 309 307 305 303 302 303 302 302 300 301 299 301 299 302 299 295 294 290 293 294 296 295 295 294 295 295 295 293 295 295 295 292 292 290 290 289 287 288 286 287 289 290 290 289 289
320 321 321 322 322 322 323 323 324 325 325 325 325 326 325 324 326 326 324 325 327 325 325 326 324 322 324 324 321 316 309 303 303 299 302 319 320 320 320 321 318 317 310 308 307 306 305 304 303 301 300 298 300 299 302 299 301 298 296 292 293 295 295 294 294 294 295 294 294 294 294 293 295 294 293 292 292 290 291 287 287 286 285 286 287 288 288 288
320 320 321 322 321 322 322 324 324 325 325 325 325 325 324 325 325 324 325 325 326 327 325 325 324 320 319 319 319 314 306 304 296 299 305 318 319 320 318 319 315 312 312 308 307 305 302 303 303 302 300 299 300 299 298 299 299 297 296 294 295 294 294 293 293 293 293 293 293 293 293 293 294 293 293 293 291 291 292 291 290 287 286 286 287 287 287 287
320 320 320 321 321 321 323 323 324 325 325 325 325 324 325 325 325 324 326 325 325 324 325 324 324 320 317 318 316 311 305 297 296 302 306 318 317 318 317 316 314 309 307 303 304 303 304 303 302 302 302 297 300 300 298 298 297 298 295 294 294 294 293 293 292 291 291 291 292 292 292 293 293 293 293 292 290 292 291 291 290 290 287 286 285 286 286 285
319 320 320 320 320 321 322 323 324 324 324 325 325 325 324 325 324 325 325 325 325 325 324 324 323 322 318 317 313 309 304 289 300 301 313 316 315 315 313 311 311 311 306 305 303 303 303 303 302 300 299 299 296 297 297 297 297 294 294 292 293 293 292 292 292 290 289 293 292 293 293 294 293 292 290 291 289 288 289 290 290 289 288 287 286 286 285 284
319 320 319 320 320 321 322 323 324 325 325 324 326 325 324 324 324 324 324 325 325 325 324 323 322 322 318 314 315 304 299 296 300 303 309 313 313 311 311 307 310 307 307 305 304 304 302 301 301 298 299 298 296 297 296 296 296 296 294 293 291 291 291 290 290 288 290 291 291 292 293 292 292 291 290 287 285 288 289 289 288 287 287 286 285 284 284 283
319 319 319 319 319 320 321 322 323 323 324 325 324 326 325 324 322 323 324 324 323 324 324 321 320 320 319 311 309 299 297 295 301 304 307 310 304 303 306 306 305 306 302 299 300 302 301 299 298 299 298 297 297 297 296 296 298 296 294 294 291 290 291 291 290 290 289 290 291 292 291 291 291 290 289 284 285 286 287 287 286 286 285 285 284 283 283 283
319 319 319 319 319 320 321 322 323 323 324 325 326 325 325 324 322 322 323 322 322 321 321 319 319 315 315 313 303 298 294 300 301 302 302 300 301 302 306 303 303 302 300 301 300 300 302 298 299 299 295 297 296 298 296 296 294 296 294 293 291 291 291 290 292 291 289 291 291 291 290 290 289 289 284 283 284 286 286 285 284 284 283 283 283 283 283 283
319 319 319 318 319 320 321 321 322 324 324 325 324 324 325 324 322 322 324 324 322 320 317 317 315 315 312 307 306 295 297 301 302 303 301 300 300 304 303 301 301 302 302 300 303 303 301 299 299 299 300 296 295 294 293 295 292 296 292 293 291 289 290 290 290 291 290 289 290 288 288 288 289 287 284 284 285 286 284 283 283 283 282 282 282 282 282 282
319 319 318 319 319 320 321 321 321 322 324 325 325 325 325 323 322 323 323 324 323 324 322 317 314 308 304 303 297 293 301 302 304 302 300 300 301 300 299 299 299 300 300 300 300 298 299 301 299 299 301 296 295 293 294 293 294 291 289 291 291 291 289 290 291 290 291 290 289 288 287 288 288 288 283 283 285 285 283 282 282 281 281 281 281 281 282 282
319 319 318 319 320 320 321 321 320 321 322 324 324 325 323 322 321 323 323 322 322 321 320 316 311 303 303 299 295 295 302 302 304 302 301 301 300 298 298 298 298 299 301 299 298 298 298 300 302 301 295 298 294 292 293 292 294 291 291 289 289 291 290 289 287 289 290 289 290 288 286 285 285 282 283 284 285 284 282 281 281 280 280 281 281 281 281 282
319 318 318 319 320 321 320 320 321 321 322 324 324 322 321 321 321 321 323 320 318 316 317 314 312 308 307 296 296 301 302 304 304 301 301 302 302 298 298 297 298 299 300 299 297 297 299 299 301 295 296 298 295 291 293 291 289 292 291 288 290 288 289 287 290 290 289 290 290 290 280 284 281 283 284 285 284 282 281 280 280 280 280 280 280 280 281 281
318 318 319 320 319 320 320 320 320 322 322 323 319 320 321 321 320 320 322 322 319 320 316 313 310 308 302 295 300 301 303 305 304 301 298 302 302 301 298 301 299 298 299 298 297 299 298 299 298 294 299 293 292 295 292 290 292 288 287 290 285 283 284 289 288 289 287 288 289 290 280 284 280 282 284 284 284 282 280 279 279 279 279 280 280 280 280 280
318 318 319 320 320 320 321 321 320 320 320 319 320 319 319 318 320 320 320 317 318 315 321 313 308 312 299 296 300 301 311 307 300 298 299 299 299 300 300 299 298 295 297 299 298 297 297 299 300 295 292 294 294 293 291 289 289 289 286 283 285 282 284 287 289 287 284 288 290 288 281 283 281 282 283 285 284 282 279 279 279 279 279 279 279 279 280 280
318 318 320 319 320 319 319 319 318 318 319 319 318 318 319 319 318 318 317 316 315 314 318 316 307 304 299 294 298 305 302 297 297 299 298 299 299 297 298 295 296 297 296 295 296 296 298 298 293 293 294 295 292 290 290 288 287 287 284 281 280 282 282 285 287 287 286 286 288 286 280 284 282 282 283 285 283 281 279 278 278 278 278 279 279 279 280 280
317 318 320 320 319 319 319 319 316 316 317 316 315 315 315 317 318 316 315 311 307 311 307 303 304 303 295 299 302 298 295 298 299 299 299 300 299 297 297 298 295 296 296 295 298 298 296 294 290 293 295 290 290 290 287 284 281 283 285 281 282 279 281 280 286 286 287 286 283 287 283 283 282 281 282 283 284 280 278 278 278 278 279 279 279 279 279 279
317 319 320 318 318 319 319 319 318 318 318 317 314 312 309 313 313 312 310 312 311 308 304 308 302 303 296 300 292 294 298 296 298 297 298 300 297 298 296 295 296 294 296 295 297 294 294 292 294 287 290 289 288 286 282 277 279 279 280 280 280 282 283 281 280 285 286 287 283 284 284 283 281 281 281 282 283 280 278 278 278 278 278 279 279 279 279 279
318 319 319 318 318 318 319 318 318 319 318 320 317 319 317 311 315 308 305 306 309 303 299 296 298 293 289 293 297 297 297 298 296 298 296 298 298 297 298 295 296 296 294 294 291 293 293 292 294 288 283 284 283 284 281 281 282 281 281 280 280 279 280 280 283 287 284 283 282 283 281 282 281 280 280 281 282 280 279 279 278 278 278 278 279 279 279 279
318 318 318 318 318 318 318 318 318 319 317 314 328 314 315 305 306 303 303 302 296 297 298 298 295 296 296 295 295 298 298 296 295 297 297 298 298 298 297 297 298 297 293 289 291 290 291 287 283 282 283 284 285 284 285 284 283 283 283 281 281 280 281 283 284 287 286 283 282 283 283 281 280 278 279 280 281 279 278 278 278 278 278 278 278 279 279 279
317 317 317 318 318 318 317 317 316 315 315 320 322 312 303 306 301 292 293 296 294 295 298 297 296 295 294 295 296 295 293 295 296 296 296 300 297 295 294 296 295 292 290 288 289 291 294 285 283 284 284 284 284 284 285 284 284 283 282 281 280 281 278 282 283 285 287 281 281 283 282 282 278 278 279 280 279 278 278 277 277 277 277 278 278 278 279 279
316 316 317 318 318 319 318 316 316 314 312 314 315 305 303 306 303 306 304 293 297 299 296 294 293 295 294 294 295 293 293 293 295 295 297 298 297 295 293 293 290 287 290 291 289 289 286 282 284 285 284 284 284 284 284 284 284 284 281 281 280 280 281 284 283 285 285 283 281 282 280 280 277 277 278 279 278 278 279 278 277 277 277 278 279 278 278 278
316 316 317 318 318 319 319 318 314 314 316 317 308 306 304 306 305 302 308 298 295 297 299 298 296 294 294 296 296 294 293 289 288 293 293 296 296 292 293 291 289 289 290 290 287 286 284 284 285 284 284 284 284 283 284 285 285 282 281 279 277 280 278 276 282 284 284 282 280 281 279 280 277 277 277 278 277 277 278 278 278 278 278 278 278 278 277 278
315 315 316 317 318 318 317 315 315 318 309 309 308 305 303 305 302 302 306 295 294 294 297 295 295 295 293 293 295 295 292 290 291 290 296 294 292 291 293 288 289 288 286 287 288 285 283 285 285 283 283 284 284 284 283 282 281 283 281 279 278 278 279 279 279 282 284 284 282 281 279 280 277 275 275 276 278 277 277 277 278 278 280 280 280 279 278 277
314 315 316 317 317 318 314 312 313 307 304 311 308 305 301 300 303 301 303 292 296 295 295 297 294 295 295 297 297 295 291 292 292 291 294 293 291 294 290 289 290 287 286 286 287 287 285 285 283 284 285 285 285 283 282 281 280 281 280 280 280 280 279 280 281 280 279 279 281 278 273 274 279 277 275 275 276 275 276 276 276 278 279 279 278 278 279 279
314 315 316 315 316 314 316 313 306 308 312 308 307 302 298 298 304 305 304 293 287 292 300 293 297 294 297 295 294 291 292 291 291 292 294 292 293 291 292 288 289 285 286 287 285 285 285 285 284 284 285 286 284 283 282 282 279 280 279 282 281 281 280 280 279 278 275 272 278 281 273 270 279 277 275 274 274 273 275 275 277 277 277 278 279 279 278 278
314 315 316 313 315 314 310 311 306 307 306 304 306 300 299 303 302 306 297 291 286 291 291 297 298 295 300 294 292 294 289 290 295 294 293 294 291 293 289 286 290 290 287 284 287 284 287 287 286 286 285 284 283 281 283 282 280 279 282 282 281 280 279 279 278 278 277 280 282 278 278 272 271 275 275 275 273 273 273 275 277 278 278 278 278 278 278 279
313 314 316 312 313 308 309 308 306 309 306 303 300 299 298 301 303 308 296 280 278 298 290 296 295 301 297 293 296 293 289 292 290 292 295 294 293 293 290 285 285 285 286 287 282 284 284 284 284 284 284 283 281 282 284 282 280 280 282 283 281 281 281 280 278 278 279 276 274 278 278 272 271 274 275 275 272 272 274 276 276 277 277 278 278 278 279 279
313 314 314 315 311 307 311 311 311 306 302 299 295 300 300 303 306 301 291 280 288 291 303 292 300 297 293 297 292 291 291 291 288 291 295 296 294 291 288 286 286 286 287 288 282 283 284 283 284 284 283 281 283 284 284 283 279 283 284 283 283 283 282 280 279 278 277 274 271 275 277 270 270 276 274 275 274 272 273 276 277 277 277 277 276 277 278 278
312 312 314 312 314 320 309 308 306 304 298 296 299 298 302 306 301 291 283 275 291 285 294 295 295 289 291 293 289 290 289 288 288 290 292 288 291 293 287 287 288 286 286 289 286 283 283 287 287 286 282 283 283 285 284 283 283 285 284 282 282 280 280 279 279 278 276 270 273 276 276 274 267 271 272 271 270 273 274 275 276 276 276 277 277 277 277 277
310 311 310 315 317 307 305 304 303 299 296 298 299 305 306 302 292 285 273 284 292 291 293 291 288 291 287 287 286 289 288 287 289 289 289 291 289 290 290 287 292 285 286 286 285 285 286 286 284 284 288 286 285 283 284 282 283 283 281 279 279 279 280 277 277 274 270 269 275 277 275 275 266 270 272 274 274 275 274 273 274 274 275 276 276 276 277 276
309 308 309 309 305 302 308 305 302 299 297 295 305 308 301 288 292 284 281 295 285 287 285 287 287 285 286 285 285 284 284 288 287 287 284 284 283 282 282 281 280 282 283 280 281 285 282 282 281 284 286 282 282 283 283 282 284 282 280 279 273 271 271 268 272 267 268 267 274 277 275 271 270 272 274 273 275 275 276 276 274 275 275 275 276 276 276 276
310 308 307 304 307 306 302 301 297 298 296 302 306 304 297 288 278 282 281 285 284 285 285 286 286 285 282 284 285 284 285 284 287 286 285 285 284 282 283 282 283 282 279 280 280 280 283 280 283 282 283 285 284 279 279 279 281 280 277 275 271 266 265 263 268 271 270 274 277 274 276 271 275 274 274 274 275 277 276 277 277 276 275 275 275 275 275 275
306 308 304 299 301 301 300 296 296 297 302 309 306 298 292 285 278 285 282 285 284 285 286 284 285 284 284 285 283 283 285 284 285 285 287 284 284 282 283 283 283 282 283 281 277 277 277 279 281 282 281 285 283 281 280 279 279 279 280 277 273 271 265 263 266 263 266 269 273 276 270 267 267 270 275 276 277 276 277 278 277 277 276 276 275 275 274 274
304 304 303 300 301 298 299 296 298 299 309 308 299 293 285 280 280 283 283 285 285 285 285 283 283 283 284 283 282 283 283 283 283 285 284 284 281 281 280 280 282 282 280 280 277 277 278 278 282 283 282 283 281 281 282 280 279 280 280 281 275 272 275 267 269 267 265 267 269 269 269 273 271 276 277 277 276 276 277 276 276 275 275 275 274 273 273 273
310 311 304 301 303 300 299 298 298 302 313 303 295 287 285 283 283 283 284 285 284 285 285 284 285 285 283 285 282 282 284 283 284 283 282 282 281 281 280 281 280 280 280 279 277 277 279 280 282 284 282 282 281 282 281 282 273 278 279 273 275 280 277 272 273 275 274 271 268 273 271 273 278 276 275 276 275 276 276 275 275 274 274 273 272 272 272 272
312 307 306 301 302 301 299 298 300 306 306 302 293 284 284 282 283 283 287 284 284 285 283 285 283 282 282 282 283 282 284 283 283 283 282 282 281 281 280 281 281 281 281 280 277 280 276 278 283 281 280 281 281 282 282 282 282 280 273 276 280 278 277 272 265 269 268 266 267 271 267 268 269 265 275 275 273 273 274 273 274 274 273 271 271 271 271 271
307 303 299 301 298 299 298 296 304 305 301 296 284 284 281 284 283 286 282 285 284 283 284 284 282 282 281 281 284 281 283 283 284 283 281 282 280 282 280 281 281 280 282 282 280 278 279 276 281 279 279 282 281 281 280 281 283 279 276 281 274 268 269 274 270 261 262 262 264 268 269 269 269 268 272 271 270 271 272 273 272 271 271 270 270 271 271 271
299 307 303 300 300 298 299 298 305 304 301 290 284 286 283 283 284 285 284 285 284 284 285 281 283 281 281 280 281 279 279 283 282 282 281 282 280 281 281 281 280 282 281 282 281 280 280 274 279 278 279 281 281 281 276 278 281 281 282 277 278 277 273 268 267 271 269 262 262 263 267 265 272 271 272 271 270 271 272 272 271 271 271 270 270 270 269 270
303 305 296 298 299 300 300 305 302 299 296 289 283 282 285 285 285 283 282 284 284 284 284 283 281 283 281 281 281 283 281 281 282 282 282 281 280 282 281 281 281 281 281 280 279 281 279 279 274 281 281 281 278 280 277 278 275 276 276 274 274 273 275 273 272 268 266 263 264 262 260 265 272 275 274 271 272 272 272 271 271 271 270 270 270 269 269 270
294 303 299 301 300 297 303 301 291 286 284 283 285 284 285 285 285 284 283 283 287 286 283 284 284 284 282 281 281 282 282 281 281 282 281 281 281 280 282 282 281 280 281 279 279 279 278 278 274 278 279 279 279 280 279 280 279 277 276 272 273 270 269 266 266 270 265 265 262 261 258 266 274 277 274 274 274 273 273 272 270 270 270 270 270 269 270 270
301 292 296 301 299 304 306 293 285 284 287 286 286 286 286 290 287 285 283 284 283 286 285 285 283 283 282 282 282 281 282 281 281 281 281 281 281 282 279 278 281 281 279 279 278 279 279 278 276 274 278 279 279 277 279 281 279 277 277 273 273 273 272 269 263 267 269 267 267 265 263 265 277 277 276 274 274 273 273 272 270 270 270 269 269 270 270 270
298 296 298 299 297 304 297 286 287 286 285 285 286 285 284 285 284 283 285 284 284 285 286 285 284 283 282 284 282 283 282 281 281 281 281 282 281 281 277 277 278 278 279 279 277 278 280 276 273 277 281 280 279 279 278 279 278 277 275 275 274 270 270 270 270 269 265 267 265 264 263 268 277 278 277 276 275 274 274 272 270 270 270 269 269 269 269 269
296 296 299 301 301 306 304 287 285 283 284 284 284 284 283 286 285 284 284 284 284 285 285 284 283 283 283 283 284 282 283 280 280 280 281 280 282 277 277 278 278 281 279 279 278 279 276 278 275 274 276 277 275 275 275 275 276 277 274 271 272 272 270 268 268 267 264 267 267 264 259 266 275 278 277 276 274 273 272 271 271 269 269 269 269 269 269 268
292 293 298 298 297 301 297 289 288 284 284 284 283 283 284 284 284 285 284 285 284 284 284 284 283 285 283 283 283 282 281 281 280 279 279 279 282 277 276 276 276 280 279 281 282 283 278 277 277 272 270 268 269 270 272 274 276 277 274 271 269 270 269 270 267 266 263 268 268 265 265 271 275 276 275 274 273 272 272 271 271 270 269 268 268 268 268 267
299 289 293 296 294 292 287 287 289 287 283 282 283 282 283 284 284 283 285 285 284 283 284 284 283 283 282 282 282 282 281 281 280 280 279 280 280 280 279 276 277 280 279 280 278 278 276 275 277 277 275 273 275 277 280 280 278 273 275 274 269 268 269 269 270 269 265 266 265 268 268 269 270 272 272 272 271 270 269 269 268 268 268 269 269 268 267 266
294 292 287 289 295 291 287 288 287 288 287 287 284 282 281 282 282 284 285 285 284 285 284 284 283 283 282 282 281 282 281 281 279 278 277 278 279 279 277 278 278 278 279 282 278 277 276 277 277 276 276 277 278 278 279 279 275 276 274 273 270 268 266 266 267 266 271 267 264 271 271 267 268 271 271 271 271 270 269 268 268 268 268 268 268 268 267 266
294 287 288 288 292 288 290 287 286 286 284 287 283 282 283 283 282 283 284 284 284 283 285 283 283 283 284 283 283 280 280 279 278 279 276 274 278 279 280 278 281 281 281 280 277 278 277 275 273 270 274 276 277 277 278 276 276 275 274 273 271 271 268 266 267 269 269 265 264 269 270 267 270 271 272 271 270 269 269 268 268 269 268 268 267 266 265 264
292 287 288 286 289 281 285 285 286 289 287 285 284 282 280 282 283 283 284 284 282 283 283 282 282 283 284 282 283 282 279 280 280 275 274 277 277 278 279 279 280 280 280 278 278 272 277 276 272 269 272 274 275 276 277 275 275 273 272 273 273 271 270 269 269 271 270 268 270 269 270 270 271 271 272 271 272 270 269 270 269 268 267 267 266 265 264 264
290 292 288 287 286 284 283 283 284 289 287 285 285 283 283 282 283 282 282 283 282 282 283 282 282 283 283 283 282 281 282 282 280 281 278 277 275 276 279 281 280 279 279 277 276 275 276 276 273 270 270 273 277 277 275 274 273 272 273 273 272 271 271 271 270 271 271 270 271 270 268 267 273 274 272 273 272 271 270 268 267 267 267 266 265 264 264 263
292 290 294 293 288 284 285 283 287 287 287 286 286 282 283 281 284 285 284 283 283 283 283 283 283 282 281 282 282 282 284 282 282 281 280 281 281 282 281 280 282 279 277 275 275 275 275 275 270 270 271 274 276 274 275 275 272 270 270 271 271 270 269 271 269 272 270 268 269 269 267 268 272 273 273 272 270 269 267 267 267 267 267 266 264 264 263 263
290 287 291 295 287 282 284 282 284 286 287 286 285 285 284 285 285 285 283 282 283 283 283 283 284 284 281 281 282 284 283 283 283 283 282 283 283 282 282 282 282 281 278 276 271 275 274 275 274 272 271 275 276 275 275 272 269 268 270 272 273 272 272 273 274 274 273 273 268 266 268 272 272 273 270 269 269 268 267 267 266 267 267 266 264 263 263 263
Wind_Speed
8 8 9 9 8 7 7 7 6 6 5 5 6 8 6 4 4 4 3 3 3 3 3 3 3 3 2 2 1 2 6 8 17 17 18 6 6 13 12 12 11 11 7 5 4 4 3 1 2 3 2 2 3 1 1 2 4 3 2 2 5 2 5 3 6 4 4 7 4 2 1 4 5 4 4 5 9 9 8 9 6 9 10 9 11 13 13 11
9 8 7 6 6 7 8 8 7 6 5 6 8 7 6 5 3 3 4 4 3 3 2 2 1 1 1 2 1 3 1 8 16 17 13 4 9 14 14 13 12 11 6 1 7 3 1 2 1 2 0 1 1 2 2 3 4 3 1 2 6 2 3 3 5 5 5 6 6 3 0 3 4 1 5 5 5 6 7 6 6 11 11 11 12 12 12 11
7 7 8 9 8 7 7 7 6 4 6 8 7 7 6 6 4 4 5 4 4 3 2 2 2 1 2 3 2 1 2 4 14 18 15 14 15 16 14 12 12 8 7 3 2 4 4 2 2 1 3 0 6 3 2 4 4 3 4 5 3 3 4 2 5 6 4 6 8 7 2 3 2 0 4 4 2 5 4 6 6 8 12 11 12 12 11 11
7 10 10 8 6 6 4 5 4 8 8 9 7 7 6 6 6 6 6 5 4 3 3 3 3 3 2 1 2 1 3 3 12 9 11 15 17 16 15 12 10 4 2 6 1 2 2 3 4 3 2 3 2 1 2 4 4 2 3 4 4 3 4 4 5 4 4 3 7 5 1 3 3 1 3 1 4 7 1 5 1 10 14 13 12 12 12 12
11 9 8 7 4 4 5 7 8 8 9 8 8 6 6 5 5 6 5 4 3 3 3 2 3 4 2 0 4 5 3 1 6 8 11 16 17 15 13 13 8 4 5 4 1 4 3 5 1 4 3 2 2 2 4 2 3 2 3 4 3 1 3 7 7 3 4 1 4 3 6 4 1 2 1 4 7 3 4 5 5 11 14 14 14 13 12 13
5 6 6 5 6 6 8 8 9 9 8 7 7 6 6 5 6 5 4 4 3 1 1 1 2 1 6 6 6 3 4 4 5 11 14 15 17 13 11 9 9 2 1 4 4 3 2 3 2 2 2 2 4 3 3 2 2 3 4 2 1 2 4 7 6 5 3 3 4 5 4 1 2 2 3 3 6 8 9 3 8 14 14 14 14 14 14 14
6 6 6 7 7 9 8 9 9 8 8 7 6 7 6 7 5 5 4 4 3 2 0 2 2 1 1 3 5 15 13 5 4 11 15 15 16 12 9 3 4 5 5 6 8 4 4 4 4 3 2 3 2 2 3 2 1 2 1 1 3 1 3 3 5 4 2 3 4 4 2 4 3 6 3 7 8 8 8 11 15 16 15 14 15 14 15 14
10 9 9 9 9 9 9 9 8 7 7 6 6 4 6 6 6 6 6 6 4 2 1 2 2 2 3 1 0 10 10 8 14 9 15 15 13 11 5 2 11 4 12 7 5 4 2 7 4 3 3 3 1 0 2 2 4 1 2 3 2 1 2 3 2 4 2 2 2 3 4 3 2 3 4 9 8 8 12 13 15 15 15 15 15 15 14 14
10 10 9 9 9 9 8 7 7 6 5 5 5 4 4 5 6 6 6 6 6 5 5 2 1 2 1 3 1 10 9 9 6 9 13 16 12 7 9 6 10 7 3 4 4 1 2 2 1 3 1 3 1 2 2 3 2 3 3 3 1 2 3 4 2 7 5 1 3 4 7 3 4 4 10 6 7 9 12 14 15 16 16 14 14 14 13 13
9 9 9 9 9 8 6 6 5 5 5 5 5 4 3 3 4 5 4 5 7 9 10 8 4 3 6 1 2 12 5 5 4 8 12 12 9 5 11 7 8 6 4 7 7 9 7 3 5 2 7 7 1 4 5 4 4 2 3 2 2 4 1 5 6 8 5 3 5 7 9 3 3 4 3 6 7 10 12 14 13 14 15 14 13 12 12 14
8 9 9 8 8 7 5 5 4 5 4 4 4 4 3 1 2 3 4 5 6 5 5 7 7 2 12 10 13 10 2 6 5 8 12 11 8 10 9 9 8 3 3 8 9 5 4 3 2 2 1 4 2 3 4 3 2 2 3 1 1 4 3 4 3 7 8 2 6 5 6 4 2 3 4 6 7 8 13 13 13 13 13 13 13 13 12 11
8 8 8 8 7 6 5 4 5 5 5 4 4 4 3 2 3 4 3 6 5 4 5 4 5 2 3 20 13 5 3 3 5 7 9 10 6 3 3 5 8 6 5 7 8 6 3 1 2 4 5 4 2 2 4 2 1 1 6 4 3 9 1 5 10 10 7 4 9 5 4 4 7 5 3 8 7 9 12 13 13 14 13 12 12 12 11 11
9 8 7 7 5 4 4 5 5 5 5 4 3 4 4 5 4 3 3 5 5 5 4 4 3 2 3 16 6 1 2 4 3 6 11 11 4 2 3 5 8 8 8 8 6 5 3 2 4 14 2 2 3 3 2 2 1 2 4 2 2 9 2 4 4 9 13 5 9 11 9 5 7 7 7 7 8 10 11 12 11 11 11 11 11 11 11 11
8 7 7 5 5 5 5 6 6 6 5 4 5 6 6 6 5 5 6 3 1 3 6 7 3 7 9 7 4 1 4 1 5 16 18 12 10 1 3 5 6 7 5 9 6 4 3 1 11 11 3 8 3 0 2 1 1 5 4 3 5 6 4 9 9 6 10 3 8 9 10 7 7 7 6 6 9 10 11 11 11 10 10 10 10 10 11 12
7 7 6 5 5 5 6 7 7 6 5 7 6 7 9 9 5 4 3 2 4 4 4 4 5 3 7 4 3 1 2 5 16 12 8 14 11 6 11 8 4 6 5 7 4 1 1 3 4 9 6 1 4 3 1 1 3 5 3 4 6 7 8 10 4 5 9 6 7 9 6 12 7 6 3 7 8 8 11 10 10 10 9 10 9 9 9 10
7 6 5 5 5 6 7 7 7 8 8 7 7 7 7 6 6 6 6 4 5 3 3 2 9 5 10 7 4 3 3 16 17 9 3 7 7 7 10 5 1 3 0 5 1 1 5 11 11 1 5 1 10 8 2 1 3 3 8 6 9 9 11 10 5 4 4 8 6 3 11 13 4 6 3 7 9 9 10 10 10 11 10 9 8 7 7 7
7 5 4 5 6 6 6 5 7 11 13 15 17 15 12 6 4 6 6 7 6 3 4 4 1 2 5 1 3 6 7 5 4 9 10 5 5 6 7 4 4 4 3 0 5 1 9 5 2 1 4 9 6 7 3 3 10 7 7 7 6 8 13 11 13 8 3 4 12 8 6 8 6 5 4 6 9 10 10 11 11 8 8 8 7 6 7 7
6 4 4 5 6 6 5 4 3 3 5 6 8 8 12 12 13 8 5 5 2 7 4 5 1 0 5 4 7 10 6 5 8 8 4 6 2 8 9 8 5 1 1 4 8 12 7 5 4 5 5 8 10 12 12 9 8 12 12 11 10 11 6 12 13 12 11 2 8 11 8 9 5 6 6 5 9 10 10 10 10 9 8 7 6 6 6 6
5 5 5 6 6 5 4 3 3 2 2 1 1 1 1 4 4 10 11 7 3 4 4 9 8 5 5 8 6 6 4 3 5 11 19 14 8 1 3 2 4 7 1 4 7 10 6 2 0 7 11 12 10 11 7 3 6 9 10 7 9 9 12 11 14 8 6 9 11 9 11 11 5 5 5 5 8 9 10 10 8 8 7 6 6 6 6 5
6 6 7 6 5 4 4 4 4 2 3 1 1 0 1 1 3 4 9 12 11 6 5 1 1 2 0 5 10 10 2 6 6 17 20 12 8 5 8 5 1 8 9 6 5 6 5 8 9 7 7 7 6 5 5 2 5 7 7 6 7 11 10 13 13 3 5 9 9 12 12 5 4 5 4 6 8 9 10 9 7 7 6 5 5 7 7 6
7 7 6 5 4 5 7 5 4 3 3 3 2 1 1 3 2 4 3 4 2 2 4 4 4 5 5 3 6 9 3 3 6 16 16 15 2 2 11 7 10 11 8 3 1 2 1 10 7 5 5 5 2 1 1 4 4 6 9 7 10 8 10 15 11 5 3 8 11 9 10 1 5 4 5 6 7 8 9 9 8 7 5 5 7 8 8 7
7 7 5 6 5 5 5 6 3 5 5 4 4 4 3 0 1 3 3 6 4 5 3 3 2 4 1 2 1 1 5 2 9 21 15 14 12 5 8 7 7 9 6 1 3 1 10 10 5 5 2 1 1 0 2 4 9 6 6 7 8 12 16 5 5 1 5 7 10 6 10 2 5 6 6 6 6 6 5 7 8 6 5 6 7 8 7 9
9 7 8 6 5 3 3 2 5 2 2 3 4 4 4 2 2 2 1 8 5 2 3 3 6 5 4 4 3 6 11 14 6 15 18 14 7 10 4 6 8 3 6 8 7 6 7 8 7 2 2 3 2 2 6 9 4 9 8 10 10 12 13 16 12 16 13 6 8 7 8 1 7 8 8 6 7 8 9 10 8 7 7 8 8 6 7 9
9 8 7 7 5 2 2 2 2 4 5 3 6 5 3 1 0 1 3 3 4 1 2 1 3 2 5 8 6 8 13 4 3 17 13 9 8 4 1 6 2 6 7 5 8 11 8 4 2 1 1 3 5 3 11 10 10 7 6 10 10 16 15 11 15 16 17 4 3 9 9 1 6 8 7 8 10 11 10 9 7 6 5 6 6 7 7 8
9 8 7 7 5 3 2 1 4 2 2 1 4 1 2 1 0 2 2 1 1 3 2 2 1 5 4 3 2 2 3 5 7 3 6 10 9 2 4 2 3 8 4 2 1 7 7 3 1 2 1 3 9 9 11 10 8 6 9 9 12 16 19 17 15 14 9 6 4 11 8 9 4 7 9 9 8 9 6 6 5 7 8 8 9 9 8 9
9 8 7 7 3 3 3 2 1 2 1 3 2 2 2 1 1 1 1 2 2 5 2 6 3 5 4 6 8 3 3 6 3 5 3 6 3 2 3 3 4 8 6 0 5 5 4 1 1 3 3 7 9 8 5 7 9 6 7 5 13 16 16 14 14 8 7 10 7 3 10 13 12 3 10 9 9 8 5 4 6 5 5 8 8 9 10 11
9 7 7 8 2 3 1 2 2 3 2 2 3 2 1 1 1 1 2 1 2 3 5 2 1 5 1 8 4 4 1 6 4 1 8 6 4 2 2 4 2 2 2 1 3 5 4 4 2 2 6 7 9 11 9 8 7 6 11 14 14 17 15 12 9 5 7 6 4 5 7 16 16 8 7 10 9 6 3 4 8 8 10 10 9 11 12 13
10 7 6 9 7 1 1 6 4 2 1 2 2 1 1 1 1 2 0 2 1 2 4 4 3 2 5 7 13 10 4 8 2 8 8 7 3 2 7 5 4 5 5 3 4 2 4 5 7 7 6 9 9 9 10 3 5 6 12 14 13 15 13 10 3 6 6 5 7 8 10 13 11 8 7 8 5 2 4 7 7 10 9 9 10 12 15 15
11 8 4 5 8 10 8 3 4 3 1 3 2 1 0 2 1 2 1 1 1 3 4 2 2 2 8 4 9 4 3 7 4 5 12 4 13 3 6 5 1 2 1 6 4 2 1 2 3 2 6 8 7 9 7 6 9 8 13 12 12 9 7 3 4 4 4 3 11 13 10 12 12 7 5 5 8 5 6 8 10 8 10 9 10 14 16 17
12 10 7 1 2 1 3 3 6 1 2 2 1 1 1 1 1 0 0 1 1 0 3 4 3 7 6 3 3 7 7 5 2 7 5 7 10 6 5 3 0 2 4 4 7 3 1 0 2 2 6 5 7 8 3 5 3 13 12 10 11 4 7 1 2 8 5 6 12 15 18 12 12 4 3 3 3 3 5 8 8 9 9 9 13 16 17 17
15 13 10 4 3 1 1 4 0 1 1 2 2 1 1 4 1 2 2 0 3 2 1 5 2 1 6 10 4 6 2 3 7 7 4 2 8 11 5 2 1 1 1 1 3 6 3 3 2 2 1 3 4 6 4 3 6 10 11 14 14 2 10 2 2 6 6 10 12 18 17 15 10 7 6 5 2 2 4 6 10 9 12 12 14 16 18 18
13 15 14 11 1 1 2 4 1 1 1 1 1 2 1 2 1 2 3 4 2 2 3 3 3 2 4 2 3 7 5 2 4 7 8 7 11 14 13 7 7 3 1 10 9 5 3 4 1 1 3 5 7 5 1 4 5 12 15 17 16 13 10 9 12 13 9 11 16 19 15 6 9 1 5 5 3 2 3 4 7 8 14 16 17 19 17 17
5 7 13 9 1 5 3 1 1 1 1 2 2 2 1 2 1 1 2 3 1 3 1 2 2 4 3 2 6 5 2 7 5 5 2 2 2 8 11 11 9 4 5 5 5 8 2 4 4 3 1 1 9 10 12 5 11 12 14 13 11 11 10 9 11 9 11 8 16 10 9 8 13 3 6 5 1 2 3 4 6 6 14 17 18 18 18 17
10 5 7 3 7 4 1 0 1 2 0 1 1 2 2 3 1 2 2 1 1 2 1 2 3 1 4 4 3 6 2 2 4 5 4 1 5 6 6 11 11 7 1 2 7 6 7 1 4 8 4 6 8 6 5 5 6 7 5 9 6 3 2 9 10 14 16 18 19 10 10 4 19 5 10 3 2 4 4 5 6 11 15 16 17 18 19 18
8 8 6 2 2 3 3 1 2 3 1 2 7 1 3 0 1 2 1 0 0 2 1 1 2 0 2 2 3 2 1 0 3 2 8 5 5 4 7 7 10 7 4 1 2 2 3 6 3 3 2 4 9 2 2 4 5 3 2 5 6 6 4 5 9 8 8 13 14 4 3 14 10 3 10 2 3 4 4 7 11 14 17 20 19 18 18 17
3 1 1 4 4 4 2 1 2 2 1 4 3 4 2 2 1 1 0 2 1 1 2 1 2 1 1 0 2 2 2 1 2 1 3 7 1 3 1 3 6 8 5 3 2 4 3 2 6 3 4 7 7 1 1 5 7 10 8 7 10 12 7 8 9 10 12 11 7 8 11 14 1 5 4 4 5 12 10 12 15 18 21 21 19 18 18 16
1 2 4 4 3 5 3 1 1 2 5 4 3 1 0 0 2 1 1 0 1 0 2 1 2 3 2 2 2 4 2 1 0 1 3 3 3 4 1 1 0 3 2 3 1 1 2 10 7 1 3 4 2 4 6 6 2 5 5 8 13 9 7 4 12 11 9 11 10 11 17 16 12 13 4 11 13 14 14 15 18 21 23 22 19 18 18 19
2 3 3 3 5 5 2 3 1 6 5 7 5 5 1 1 1 2 1 2 1 0 1 2 1 3 1 1 1 3 6 1 7 2 2 2 2 1 1 2 1 1 4 3 2 1 1 5 2 1 1 1 3 4 4 6 7 9 5 5 6 6 6 6 2 9 19 15 14 13 15 11 9 12 12 12 13 17 16 19 22 25 23 22 21 20 19 19
2 2 2 4 4 4 2 3 4 4 4 7 1 3 1 3 1 1 1 1 1 2 1 1 0 1 0 1 1 1 3 2 3 2 1 4 1 1 1 2 0 1 1 2 1 2 2 2 2 4 2 5 1 2 4 1 5 8 3 5 3 4 4 9 4 4 5 15 15 16 17 10 11 6 10 12 10 15 18 22 25 24 23 20 19 19 19 16
1 2 2 2 6 3 3 2 5 8 6 4 2 2 1 3 2 1 0 2 1 0 1 1 1 1 1 1 0 1 1 1 2 2 1 3 1 2 1 1 2 2 2 2 1 2 1 1 4 1 4 5 1 2 4 2 4 5 5 4 1 1 8 8 2 1 3 12 12 17 18 9 11 4 8 6 12 16 19 23 21 20 21 21 19 18 17 15
1 2 1 4 7 3 2 10 12 6 4 1 4 5 0 2 4 1 1 2 0 2 1 2 3 1 2 2 1 1 0 1 1 1 2 2 2 1 2 1 2 0 0 1 1 1 1 3 4 11 8 4 3 4 2 5 5 3 4 3 4 7 8 9 7 5 2 2 9 10 14 13 12 4 4 9 11 16 18 22 22 21 21 20 17 18 17 14
0 1 2 6 7 1 3 8 4 1 2 2 2 0 4 1 3 1 1 1 2 1 1 3 2 2 2 1 1 3 1 0 1 0 1 1 2 3 2 0 1 1 1 0 1 1 1 2 3 7 7 8 4 3 1 8 9 6 4 2 2 4 3 2 9 8 8 6 8 8 14 11 3 5 6 9 11 15 19 21 20 20 20 19 17 17 14 13
4 1 1 5 5 3 10 5 1 2 3 2 2 4 2 3 2 0 1 0 2 1 1 2 1 1 0 1 2 2 2 1 1 1 1 2 1 2 3 2 3 2 2 2 1 1 1 1 3 7 7 2 8 6 9 9 10 5 8 5 3 3 2 2 7 7 6 9 8 10 9 8 5 11 16 13 14 16 17 18 21 19 17 17 18 16 14 16
3 2 2 2 5 2 1 2 2 1 3 1 2 5 2 2 2 2 0 1 1 1 1 2 1 2 2 0 2 1 3 0 2 1 2 1 1 3 2 2 4 0 1 2 1 2 2 2 2 8 4 3 7 4 4 5 5 3 2 4 4 5 2 5 5 2 5 6 10 13 13 10 12 13 16 16 18 19 20 19 18 20 18 16 16 14 14 16
4 0 1 4 8 4 1 0 7 5 2 3 2 5 2 3 2 2 1 1 1 0 2 2 2 3 2 1 2 1 2 2 1 1 2 1 0 1 0 2 2 1 2 2 2 1 2 3 5 7 8 10 12 12 12 11 10 3 6 5 3 2 3 3 4 3 7 10 15 9 14 16 17 18 19 18 19 21 19 20 19 17 17 17 16 14 15 16
1 1 3 4 7 6 6 2 4 6 8 4 4 0 1 4 1 0 1 2 1 2 3 4 1 1 2 2 2 2 2 2 2 1 1 1 1 1 1 1 0 1 0 1 4 2 0 0 2 1 1 6 8 11 13 12 12 8 9 2 2 2 2 2 5 7 11 13 12 13 14 22 27 24 22 21 20 22 22 21 21 20 19 17 15 13 14 16
2 2 0 1 2 8 4 3 4 2 4 3 3 3 2 1 2 1 2 1 2 1 2 2 2 3 2 2 2 2 0 1 2 1 1 2 0 1 1 1 2 2 3 1 1 1 1 1 2 4 6 9 12 16 16 12 14 15 10 5 5 5 6 6 2 7 10 13 13 3 16 19 22 23 22 22 21 20 18 19 19 18 17 15 14 14 16 17
1 1 1 1 0 2 2 2 2 6 4 2 2 1 4 4 3 2 1 1 2 1 1 1 1 1 0 1 4 2 1 0 1 2 1 1 1 1 2 1 2 1 1 1 1 1 1 1 0 3 8 8 14 16 16 13 11 11 9 7 7 6 7 5 6 11 9 6 13 23 23 21 21 20 20 18 19 19 19 18 18 18 16 14 13 14 17 18
3 3 2 3 2 1 2 2 3 7 8 4 3 2 3 4 6 1 1 3 1 2 2 1 2 2 3 2 1 1 2 1 2 1 3 3 3 2 1 0 2 1 2 0 2 1 1 2 0 1 11 12 14 15 12 11 9 7 8 9 8 7 8 9 12 12 11 13 19 21 21 21 20 18 17 18 17 16 16 15 16 17 16 14 13 14 18 18
3 4 1 5 7 3 1 1 2 3 4 2 3 3 5 6 6 3 2 3 2 2 1 2 3 2 2 3 2 1 3 2 1 1 3 4 1 3 1 1 2 1 1 1 1 1 0 1 4 1 4 10 10 5 3 7 6 11 9 7 8 8 8 11 12 13 14 16 16 18 20 17 8 10 15 17 15 15 15 18 19 17 15 14 14 16 18 17
2 1 4 10 3 2 0 2 1 2 2 1 2 3 3 4 4 5 3 1 1 3 4 2 5 4 1 2 2 4 2 1 2 1 6 4 1 3 1 1 2 3 2 2 2 0 1 2 3 1 5 7 3 4 5 6 4 6 9 8 9 9 8 6 6 8 9 12 16 15 13 13 14 14 16 15 16 17 19 19 18 15 16 14 15 18 18 18
2 1 1 5 4 2 1 1 0 2 1 1 2 5 3 7 4 6 3 0 1 2 1 3 4 2 1 1 6 2 2 2 1 1 0 2 2 3 2 2 4 1 3 2 1 1 1 1 3 1 5 5 1 4 11 0 1 3 4 9 13 11 10 10 12 12 11 11 11 9 11 13 14 15 19 18 18 18 16 16 16 15 12 12 15 17 17 17
Wind_Direction
15 5 3 13 7 10 13 12 6 354 337 6 24 32 29 19 16 7 347 359 359 15 21 33 30 12 356 36 345 268 288 50 49 40 47 56 296 315 320 319 320 305 302 267 239 191 134 130 136 348 176 225 18 212 38 57 355 261 290 321 287 346 293 14 310 316 11 296 356 37 15 290 280 141 122 148 76 85 86 68 72 74 68 88 96 114 117 121
16 1 358 7 5 11 10 356 350 341 328 9 23 21 14 16 357 11 15 16 22 27 22 22 41 359 280 252 101 342 294 30 49 40 51 337 341 344 338 328 334 318 274 314 29 18 98 96 69 326 296 127 315 50 266 74 318 328 132 268 309 324 26 352 355 322 300 323 347 346 96 284 333 163 155 229 130 135 101 71 92 86 91 99 111 112 112 115
11 355 1 2 1 13 7 341 312 309 7 16 13 10 0 355 358 4 28 27 28 34 41 53 29 339 282 233 170 87 311 338 38 22 353 5 346 344 343 337 341 332 17 7 57 30 20 54 58 264 40 109 17 58 338 42 319 69 299 306 330 33 337 13 343 321 308 320 312 329 59 279 28 299 118 270 143 188 196 142 133 127 129 126 117 110 109 106
13 6 0 345 341 10 345 284 336 12 13 12 2 8 359 357 7 10 19 16 39 23 24 39 40 23 348 322 206 205 165 283 46 334 350 353 344 342 343 344 349 326 321 55 49 68 74 95 55 12 95 42 63 317 5 16 306 80 260 320 11 23 298 69 350 342 324 298 307 330 323 272 88 58 232 319 250 204 189 161 147 165 144 131 119 113 109 104
15 359 344 319 346 344 347 1 3 12 10 1 360 358 348 348 9 7 3 20 30 29 20 344 54 69 65 223 147 226 167 258 34 332 360 347 341 339 341 344 353 6 59 135 192 67 36 39 37 49 12 80 51 130 53 24 25 217 31 22 346 74 294 36 355 360 323 333 291 294 306 1 102 148 354 286 271 330 30 28 356 136 131 126 120 112 107 100
11 352 323 323 359 4 8 3 8 7 2 352 356 356 357 354 13 355 8 25 30 24 90 302 261 97 16 32 135 174 242 65 344 338 355 338 335 335 335 338 344 326 241 38 43 11 357 37 286 50 65 29 20 10 42 357 329 290 120 21 9 33 337 10 359 5 301 311 313 318 13 306 297 102 29 26 7 351 341 344 107 112 114 112 110 111 103 96
21 349 348 353 351 8 3 2 4 358 350 350 355 6 356 354 12 17 17 29 27 16 329 264 278 170 71 6 40 73 73 104 320 343 347 333 331 330 317 278 342 12 41 45 22 50 11 67 61 57 111 115 81 69 29 305 222 327 66 16 89 231 23 6 359 345 333 301 338 355 291 293 3 293 70 51 14 22 66 97 98 103 108 111 107 99 95 90
9 357 352 350 358 6 9 3 357 356 352 353 357 1 7 349 9 23 28 39 43 31 33 351 333 21 238 53 39 60 53 8 339 345 340 333 331 332 351 256 9 342 45 47 340 47 16 38 60 211 54 12 48 32 357 203 51 36 101 10 79 194 41 359 355 25 21 44 329 258 292 4 335 9 79 42 43 71 87 97 101 104 103 99 95 93 91 88
1 350 345 350 1 5 360 353 353 352 1 352 358 8 17 360 6 19 37 52 61 45 30 17 350 70 187 100 97 72 26 349 345 328 347 343 333 332 15 17 344 36 86 34 4 341 289 69 108 271 75 147 166 172 17 303 127 32 17 329 84 90 359 357 353 36 15 39 348 282 339 67 72 93 65 39 71 89 100 101 105 104 99 94 89 86 84 82
356 344 345 353 1 359 350 351 346 343 1 5 9 15 24 17 4 17 13 37 36 32 23 26 83 172 67 108 113 72 27 305 344 347 348 346 325 336 32 16 1 13 35 360 24 19 43 89 38 121 94 85 296 42 293 342 29 1 355 357 23 20 295 40 20 13 357 66 358 342 335 21 95 283 91 70 97 107 105 105 103 100 94 92 90 85 79 77
351 348 346 343 352 359 343 331 338 358 347 338 351 351 358 29 16 18 43 49 35 12 11 15 13 85 62 49 65 71 348 336 1 348 352 346 359 30 12 356 348 26 50 46 46 4 7 54 48 133 303 37 202 56 24 33 283 36 351 143 238 316 162 8 13 21 346 93 7 343 332 113 63 57 44 120 112 115 112 107 105 100 98 94 90 84 79 74
353 349 343 338 346 355 341 330 357 355 348 345 348 352 13 31 54 21 48 51 40 28 3 16 347 60 85 64 52 30 339 346 319 350 351 357 17 39 357 3 12 9 9 59 40 23 352 51 163 41 24 264 14 180 83 336 273 26 346 317 48 332 59 48 15 1 326 5 356 312 240 147 39 36 73 130 115 121 116 112 108 103 100 94 87 83 75 69
352 349 334 325 329 334 340 351 358 359 344 349 356 24 42 58 60 51 29 50 43 51 34 2 352 72 263 63 30 338 330 318 322 310 5 3 360 145 55 33 32 27 16 70 40 5 2 5 312 70 303 318 35 341 76 270 61 240 71 352 320 353 317 103 14 11 339 33 339 341 321 350 67 70 116 131 125 125 120 117 112 106 100 95 89 83 77 69
347 339 324 324 344 351 353 2 9 1 351 349 35 54 65 69 75 60 52 88 188 54 45 25 12 36 72 101 144 213 300 270 288 16 6 346 5 71 161 59 47 38 27 86 88 26 61 79 81 114 100 31 17 96 212 141 304 25 328 259 359 325 344 4 360 343 340 99 336 343 310 339 94 81 126 137 142 146 129 122 114 106 102 96 89 85 78 71
346 333 319 341 353 353 355 14 12 17 51 61 61 65 62 56 59 57 41 82 355 287 328 302 25 163 46 82 259 252 275 213 21 11 3 359 1 348 351 357 39 37 46 63 90 31 81 238 73 45 36 214 234 221 158 151 63 25 334 355 359 339 330 336 63 32 354 357 325 331 307 332 91 61 158 164 156 148 129 124 115 109 103 97 91 83 79 73
347 334 327 354 357 12 24 30 45 76 85 92 83 71 67 65 59 62 57 32 323 331 240 76 0 62 105 70 34 299 30 17 1 335 345 7 5 1 311 316 235 77 326 70 120 53 38 64 66 47 8 285 14 359 277 124 40 75 34 344 341 339 332 338 115 84 104 328 293 15 315 312 99 39 70 178 158 150 131 125 119 112 106 101 93 82 77 75
351 345 348 356 17 25 36 43 67 86 94 93 86 76 71 77 49 73 53 42 6 319 72 36 234 268 58 283 248 4 2 354 282 342 355 39 12 334 321 35 28 2 91 196 38 180 13 62 237 161 74 45 341 307 302 11 359 10 11 349 325 340 333 334 344 126 344 355 319 318 285 330 61 42 40 171 163 150 136 130 126 119 110 101 91 80 68 60
352 347 3 18 27 34 32 22 6 51 47 42 70 78 81 68 80 58 17 17 343 68 87 144 137 110 120 47 23 338 343 287 342 315 266 19 30 5 29 20 343 290 356 156 18 23 345 50 340 67 38 33 19 27 40 13 350 333 343 343 339 320 314 317 337 347 347 336 297 317 307 336 57 41 36 153 155 152 141 138 133 123 113 99 84 67 56 48
341 1 18 25 27 35 35 20 8 349 26 100 29 198 292 263 18 60 30 338 51 17 41 355 358 62 50 339 290 281 305 301 262 358 354 6 338 9 94 149 2 41 47 48 22 12 1 109 150 40 23 16 21 35 52 31 322 321 323 316 305 321 329 329 322 335 24 330 312 330 330 328 21 40 66 127 153 150 139 136 130 120 106 93 67 45 34 26
350 11 23 22 21 35 46 49 27 353 213 78 358 229 176 109 21 35 5 29 57 53 84 348 181 120 226 19 348 317 271 297 6 6 2 3 332 306 33 351 247 74 38 38 337 47 290 54 38 30 16 5 30 33 34 335 306 287 284 286 309 305 317 332 317 25 358 330 325 324 324 331 41 44 80 126 148 145 142 139 130 119 103 76 47 33 18 358
1 12 18 20 29 40 52 48 47 39 107 109 121 104 224 142 77 78 311 66 167 335 60 52 38 39 52 318 337 344 23 2 70 16 10 317 215 283 3 345 12 43 25 304 301 291 267 60 41 14 360 346 10 347 209 305 250 305 325 333 327 334 329 322 308 354 332 0 308 329 324 19 78 81 93 127 146 149 147 137 125 110 95 56 25 13 0 352
8 17 17 19 25 38 65 53 58 83 85 100 68 98 87 22 11 55 157 83 40 27 50 72 240 73 213 236 316 315 222 289 10 9 360 356 8 18 348 51 43 48 333 324 215 77 51 49 20 360 352 160 182 254 281 308 334 335 338 332 331 347 327 320 215 34 321 320 304 348 327 14 96 100 107 125 124 117 125 132 116 105 62 22 6 355 345 339
10 10 20 11 9 27 47 119 74 108 31 36 86 109 83 73 318 249 135 123 91 308 55 31 53 35 42 172 39 234 45 37 335 359 357 341 18 60 327 31 40 19 41 5 39 31 56 38 13 7 236 235 169 311 328 334 315 360 2 358 353 337 347 328 329 329 320 298 294 322 289 214 115 113 108 101 112 104 103 106 93 56 25 2 349 334 328 331
9 12 9 10 355 28 111 100 176 45 34 69 84 67 101 55 139 255 65 60 116 42 26 13 70 79 42 17 351 13 67 31 342 351 356 358 25 270 9 25 359 39 35 355 57 71 71 8 352 255 264 297 355 357 7 355 355 5 36 0 340 339 326 312 313 318 306 251 315 321 295 247 155 148 126 113 111 108 109 106 83 39 6 342 327 324 319 315
11 13 9 0 353 285 159 147 42 56 205 320 57 90 46 59 201 353 120 101 103 104 189 147 205 65 4 208 23 207 108 136 61 246 328 13 345 302 51 205 284 37 12 344 236 87 75 52 220 259 356 20 8 12 18 349 341 3 96 9 335 317 314 316 315 329 327 351 119 339 326 354 164 168 137 136 127 110 107 92 49 5 349 341 335 337 333 321
13 15 4 2 1 114 206 78 159 173 177 72 91 82 43 71 346 301 120 75 78 332 192 22 204 37 196 0 4 34 247 70 303 23 331 10 234 25 214 44 13 15 353 317 62 77 33 80 347 16 7 23 20 13 31 344 339 336 15 347 323 307 308 315 328 336 336 340 4 310 4 325 328 22 134 135 120 111 104 50 5 348 337 332 332 336 328 324
12 13 16 11 26 161 106 200 82 145 129 145 70 29 12 250 240 153 260 336 59 352 13 320 266 29 87 344 294 227 93 9 357 296 17 24 14 278 26 20 219 143 138 270 213 62 342 14 347 36 19 17 13 3 21 3 333 3 352 335 317 309 318 319 320 281 298 317 263 84 44 325 327 50 112 121 114 112 90 35 347 353 346 339 338 332 329 327
14 8 20 33 32 339 307 114 144 139 57 30 356 31 267 214 239 287 287 71 357 340 7 350 21 322 48 320 1 59 93 293 321 25 19 313 285 326 62 31 40 344 346 283 48 13 29 0 24 8 14 24 15 345 331 3 332 332 330 320 308 308 311 319 290 296 322 319 344 351 6 324 326 56 109 122 106 80 55 360 352 343 343 340 335 328 328 329
10 12 1 60 54 67 61 81 90 97 27 328 332 277 121 188 195 107 201 110 6 63 167 83 174 73 354 277 43 39 32 356 47 328 326 255 32 236 42 25 29 316 305 22 49 15 106 43 9 323 15 18 330 320 340 341 351 342 312 289 283 287 274 310 313 301 306 302 343 354 356 328 322 14 104 139 63 43 339 352 342 344 341 334 336 333 331 327
17 14 21 73 95 34 31 56 48 330 303 313 303 237 214 186 264 222 14 348 14 293 44 310 12 330 311 14 74 11 35 10 142 310 0 49 336 53 84 321 157 360 69 43 66 54 280 16 267 321 50 354 311 312 334 348 267 294 292 326 331 245 331 202 236 342 317 346 347 356 343 337 313 77 32 82 88 8 347 352 345 340 332 332 336 333 330 326
26 25 28 47 57 97 358 58 53 8 296 253 258 254 189 40 102 95 87 213 18 330 200 46 10 317 21 37 25 9 127 357 1 342 3 291 4 34 25 171 291 184 50 48 100 47 125 182 177 68 336 311 244 290 166 203 262 307 351 348 346 104 342 197 327 178 336 327 348 348 346 318 316 350 90 86 98 206 345 345 336 332 337 330 332 331 328 328
40 38 41 58 141 309 47 133 359 335 296 277 227 72 70 248 57 52 133 15 241 23 33 343 70 30 52 230 74 357 352 322 39 21 30 19 33 27 16 49 334 359 46 22 356 2 151 89 348 103 166 350 325 299 157 198 348 11 2 5 7 346 351 341 349 351 355 325 336 342 331 317 344 23 136 159 181 336 297 309 324 330 335 332 327 330 330 330
44 51 54 46 67 52 58 322 310 238 261 232 75 42 74 94 79 251 272 314 63 350 98 191 337 355 318 241 36 346 254 31 326 52 308 20 55 89 61 43 352 11 347 14 311 360 97 95 29 159 154 351 359 15 0 4 9 18 14 1 3 351 1 330 328 311 307 298 334 322 310 320 322 68 159 156 91 296 226 265 301 326 333 328 329 329 331 332
52 36 67 9 66 73 118 37 215 219 101 32 55 44 49 62 185 45 287 310 22 44 358 5 341 176 4 54 9 334 99 125 348 20 348 17 35 37 39 43 25 5 335 38 22 347 356 54 73 9 31 358 29 39 11 324 353 35 16 8 341 2 348 315 335 329 322 320 317 42 2 291 333 4 176 172 159 206 243 250 292 316 326 329 329 329 331 332
80 69 108 136 110 77 38 294 227 229 204 69 58 83 99 177 248 187 195 234 50 263 76 235 345 270 75 107 338 222 313 109 48 61 25 29 35 38 9 4 3 359 246 263 87 250 14 256 66 80 275 5 25 30 266 292 195 95 317 326 354 359 298 262 273 270 283 299 318 40 344 344 332 46 160 165 263 264 265 331 326 330 333 333 331 334 334 335
258 43 81 41 18 1 32 298 274 236 62 61 80 44 67 169 137 184 101 36 65 330 11 161 12 120 18 171 161 43 175 315 74 148 94 61 70 45 305 350 3 359 356 43 318 355 285 23 88 59 98 52 22 295 143 302 12 342 341 9 336 317 304 300 288 243 281 308 323 340 323 332 81 152 156 252 267 336 342 332 335 334 335 335 334 334 336 338
20 319 51 338 34 356 334 335 270 73 66 90 90 90 141 239 338 141 40 335 14 32 135 213 18 19 11 335 318 352 332 277 192 291 63 195 108 52 54 90 37 352 16 343 126 175 330 293 337 32 138 107 4 82 77 30 26 339 353 357 296 158 184 50 327 325 336 322 315 336 328 325 345 341 151 338 332 340 341 337 336 335 337 336 335 336 338 338
97 68 160 66 329 326 307 289 350 53 76 81 61 105 258 95 59 19 176 146 193 220 65 82 112 307 218 283 19 340 332 312 8 347 81 333 88 187 94 316 118 355 338 292 314 88 287 299 144 113 310 177 145 176 130 81 11 47 360 360 353 358 342 352 324 342 342 340 320 333 329 316 339 316 336 341 343 340 342 338 336 336 337 336 336 337 338 336
81 117 35 1 358 329 331 289 67 62 82 69 146 120 194 31 82 88 213 29 24 227 72 313 90 7 132 174 304 223 308 38 332 39 295 25 17 167 81 312 69 92 16 317 258 112 237 293 282 137 268 338 340 256 341 57 140 114 147 52 14 315 331 330 211 313 330 311 326 315 330 313 334 320 334 346 350 342 339 339 336 334 335 335 337 337 337 335
95 66 9 11 338 352 299 149 63 44 54 98 169 62 120 103 109 130 3 278 104 299 92 139 260 122 236 17 17 2 28 10 346 11 346 7 132 72 109 208 318 6 3 330 52 308 221 260 291 71 226 258 156 353 344 7 350 353 2 25 79 174 197 195 130 168 336 318 317 313 318 307 333 18 355 358 357 346 344 336 333 332 333 336 337 337 333 333
315 98 259 353 345 325 297 44 45 31 83 59 47 107 100 123 171 88 63 306 130 302 219 165 159 117 149 142 193 218 43 51 339 44 18 124 328 122 124 175 165 14 129 173 215 166 235 213 276 309 326 3 48 92 58 103 69 53 10 38 6 12 3 354 332 106 49 230 304 309 289 285 321 352 3 10 0 346 339 337 332 333 334 334 337 335 333 333
98 47 330 3 339 267 93 56 35 338 79 95 89 136 122 195 108 89 109 133 296 109 330 104 35 95 134 170 24 165 191 97 90 305 203 4 88 22 87 28 210 282 227 24 10 101 322 268 287 301 300 295 28 106 316 125 104 94 58 112 171 83 20 359 323 318 321 265 235 244 283 286 333 40 10 4 357 344 338 336 331 331 333 335 336 334 335 339
50 146 137 346 335 48 72 72 28 43 63 93 221 62 42 78 87 83 165 314 214 286 152 70 86 141 117 261 176 177 211 143 209 49 127 225 140 44 94 132 158 167 240 130 157 128 230 220 271 255 271 112 106 108 126 133 149 153 81 76 48 40 76 335 284 323 284 308 315 309 278 281 350 345 342 347 346 338 336 336 332 331 334 336 336 335 339 335
113 128 50 31 18 125 84 139 115 91 93 132 99 74 360 85 106 154 170 31 253 158 110 123 146 342 92 86 170 164 195 201 210 227 169 185 149 77 129 243 230 227 250 58 312 120 262 121 274 303 326 179 173 171 193 210 241 6 49 71 76 110 119 205 195 169 293 259 304 317 295 300 324 335 337 337 336 334 333 333 336 334 335 335 334 336 336 334
118 305 278 320 6 36 109 323 133 140 163 133 128 106 103 65 44 337 294 139 281 100 150 108 35 136 113 152 88 103 76 326 156 41 23 200 41 90 13 226 297 277 54 5 343 301 252 314 348 18 4 347 342 337 335 330 328 333 129 132 108 124 50 4 302 247 289 325 317 302 295 291 307 324 332 339 336 332 331 333 335 337 336 334 333 335 335 335
144 124 322 13 15 49 74 342 48 127 135 156 90 115 112 104 121 146 257 95 293 98 14 115 76 191 116 183 154 189 168 60 337 147 190 187 182 129 3 198 171 318 98 152 11 264 133 355 277 134 299 291 287 285 292 309 308 297 291 163 153 140 171 224 260 292 319 307 295 261 258 305 315 325 337 337 338 333 332 335 337 336 335 333 331 331 333 335
90 92 352 127 336 47 70 11 94 74 144 195 114 175 113 80 135 140 206 250 168 290 84 20 138 193 162 211 177 159 44 245 72 118 198 215 90 22 149 302 306 251 257 240 81 121 114 262 196 244 236 251 271 275 284 294 289 290 296 297 154 170 173 174 216 290 307 316 301 282 312 311 305 317 330 332 333 331 331 332 331 330 330 329 328 327 327 333
96 159 92 334 100 147 112 45 45 92 69 70 92 25 139 143 195 155 124 32 125 255 210 150 175 334 149 195 155 164 151 75 350 231 112 277 293 144 175 165 256 67 257 210 40 329 319 263 171 101 249 246 261 267 272 276 266 266 268 253 219 193 171 197 233 245 259 248 278 301 311 304 302 315 323 328 330 330 327 324 326 327 324 327 327 327 331 333
51 113 95 293 99 325 1 102 96 105 81 67 104 126 159 179 168 167 166 129 90 132 235 192 215 163 176 181 240 117 157 152 222 113 195 171 213 148 159 102 183 48 212 111 56 49 190 250 167 209 284 280 266 262 264 264 261 256 250 248 233 199 225 232 243 254 262 258 269 282 292 296 300 310 324 325 326 323 321 320 321 329 330 331 327 328 333 333
190 155 118 13 79 100 19 44 112 95 81 345 103 208 157 175 155 184 267 196 145 175 155 232 162 128 154 171 161 180 217 255 300 229 195 131 163 221 227 215 127 114 230 207 57 147 285 6 91 248 286 284 278 253 225 229 241 266 266 246 226 223 244 247 253 264 265 262 270 291 296 291 305 325 318 320 320 321 322 330 329 328 331 332 327 332 333 331
78 342 151 135 88 18 344 358 112 75 117 210 118 177 157 202 172 169 127 321 330 145 184 192 128 115 63 176 208 254 271 196 182 343 180 186 299 168 183 172 155 155 115 132 183 331 321 261 102 62 313 294 161 215 239 259 266 272 269 244 221 225 250 247 241 250 265 279 291 292 292 302 321 325 318 317 323 328 327 327 330 328 329 327 328 332 333 330
100 135 63 99 95 302 21 75 86 122 158 149 100 156 183 190 136 158 112 187 171 310 20 123 148 145 136 211 237 227 56 128 54 53 207 63 62 93 53 112 166 166 174 143 337 199 165 289 303 336 294 266 131 313 306 279 202 228 230 215 215 219 231 259 274 279 260 271 285 291 287 302 308 323 319 321 327 327 325 323 321 321 319 319 328 332 330 329